Regional Weather Roundup
Issued by NWS Sterling, VA

Home | Current Version | Previous Version | Graphics & Text | Print | Product List | Glossary On
Versions: 1 2 3 4 5 6 7 8 9 10 11 12 13 14 15 16 17 18 19 20 21 22 23 24 25 26 27 28
000
ASUS41 KLWX 222011
RWRLWX

REGIONAL WEATHER ROUNDUP
NATIONAL WEATHER SERVICE BALTIMORE MD/WASHINGTON DC
400 PM EDT TUE AUG 22 2017

Note: "FAIR" indicates few or no clouds below 12,000 feet
with no significant weather and/or obstructions to visibility.
 TC=TEMPERATURE CELSIUS

 * =Non NWS site. Station does not report precipitation (e.g. rain,
    snow, etc.), thunder, or fog.

DCZ001-MDZ009-015-VAZ040>042-051-053>054-222100-
WASHINGTON METRO

CITY           SKY/WX    TMP DP  RH WIND       PRES   REMARKS
WASHINGTON NAT MOSUNNY   92  73  53 S22G28    29.88F HX 100
DULLES         MOSUNNY   91  74  57 S16G22    29.87F HX 100
ANDREWS AFB    SUNNY     91  69  49 S17       29.89F HX  95
FT BELVOIR     SUNNY     91  71  52 S9G18     29.88F HX  98
QUANTICO       MOSUNNY   91  75  59 S15       29.89F HX 101
COLLEGE PARK*  SUNNY     91  70  49 S9G16     29.87F HX  97
LEESBURG*      MOSUNNY   95  73  49 S16       29.88F HX 105
MANASSAS*      SUNNY     92  75  57 S14       29.88F HX 103
GAITHERSBURG*  MOSUNNY   91  72  53 SW9G23    29.90F HX  98

$$

MDZ006>007-011-014-222100-
BALTIMORE METRO

CITY           SKY/WX    TMP DP  RH WIND       PRES   REMARKS
BWI AIRPORT    MOSUNNY   92  72  51 S13G18    29.86F HX  99
MD SCIENCE CTR   N/A     94  69  44 MISG      29.88F HX  99
MARTIN STATE   MOSUNNY   90  81  74 SE15      29.89F HX 108
ANNAPOLIS      MOSUNNY   92  75  57 S10G21    29.88F HX 103
FORT MEADE*      N/A     88  72  58 SW8       29.90F HX  94

$$

MDZ012-015-019>023-222100-
MARYLAND EASTERN SHORE

CITY           SKY/WX    TMP DP  RH WIND       PRES   REMARKS
OCEAN CITY     SUNNY     82  76  81 S14G24    29.96F
SALISBURY      SUNNY     88  73  61 S16G24    29.94F HX  95
BAY BRIDGE AP* SUNNY     91  75  59 S10       29.90F HX 102
CAMBRIDGE*     SUNNY     88  75  66 VRB6G16   29.93F HX  97
EASTON*        MOSUNNY   91  73  55 S18G25    29.95F HX 100

$$

MDZ017>025-222100-
SOUTHERN MARYLAND

CITY           SKY/WX    TMP DP  RH WIND       PRES   REMARKS
PATUXENT RIVER MOSUNNY   89  73  59 S12G21    29.92F HX  97
ST INIGOES     SUNNY     89  76  65 S12       29.92F HX 100
LEONARDTOWN*   SUNNY     90  70  51 S7        29.94F HX  95

$$

MDZ003>005-222100-
NORTH CENTRAL MARYLAND

CITY           SKY/WX    TMP DP  RH WIND       PRES   REMARKS
FREDERICK*     MOSUNNY   95  66  38 SW9       29.89F HX  98
HAGERSTOWN APT PTSUNNY   92  68  45 SW8G18    29.86F HX  96
WESTMINSTER*   NOT AVBL

$$

MDZ501>502-222100-
WESTERN MARYLAND

CITY           SKY/WX    TMP DP  RH WIND       PRES   REMARKS
OAKLAND*       SUNNY     77  63  61 SW15G24   29.96F
CUMBERLAND*    SUNNY     93  61  33 SW10G22   29.90F HX  93

$$

VAZ025>031-222100-
SHENANDOAH VALLEY

CITY           SKY/WX    TMP DP  RH WIND       PRES   REMARKS
WINCHESTER*    SUNNY     90  68  48 S13G21    29.88F HX  93
FRONT ROYAL*   MOSUNNY   90  68  48 SW7       29.88F HX  93
LURAY*         MOSUNNY   90  64  43 SW13G20   29.91F HX  91
NEW MARKET*    MOSUNNY   92  66  41 S10G22    29.88F HX  94
STAUNTON*      SUNNY     90  67  45 SW14G20   29.96F HX  93
WAYNESBORO*    PTSUNNY   90  68  47 SW12G18   29.97F HX  93

$$

WVZ021-048>050-054>055-222100-
EASTERN WEST VIRGINIA PANHANDLE

CITY           SKY/WX    TMP DP  RH WIND       PRES   REMARKS
MARTINSBURG    MOSUNNY   91  73  55 SE14G20   29.85F HX  99
PETERSBURG*    SUNNY     94  67  40 SW7       29.88F HX  97

$$

VAZ036>039-050-222100-
CENTRAL FOOTHILLS

CITY           SKY/WX    TMP DP  RH WIND       PRES   REMARKS
CHARLOTTESVILL MOSUNNY   95  65  37 S13G21    29.90F HX  97
CULPEPER*      MOSUNNY   93  71  47 S12G18    29.89F HX 100
ORANGE*        PTSUNNY   91  68  46 SW5G17    29.89F HX  95
GORDONSVILLE*  MOSUNNY   94  67  41 S10G20    29.90F HX  98
WARRENTON*     SUNNY     93  67  43 S12G21    29.89F HX  96

$$

VAZ055>057-222100-
NORTH AND CENTRAL PIEDMONT

CITY           SKY/WX    TMP DP  RH WIND       PRES   REMARKS
FREDERICKSBRG* SUNNY     94  69  45 S14G20    29.89F HX  99
STAFFORD*      SUNNY     90  69  50 S9G18     29.94F HX  95

$$

NCZ024-NYZ072-PAZ021-071-VAZ022-071-222100-
OTHER REGIONAL OBSERVATIONS

CITY           SKY/WX    TMP DP  RH WIND       PRES   REMARKS
NEW YORK CITY  MOSUNNY   88  73  61 S8        29.87F HX  95
PHILADELPHIA   MOSUNNY   90  72  55 S16       29.87F HX  97
PITTSBURGH     TSTM      75  72  90 SW10      29.86S
ROANOKE        MOSUNNY   94  62  34 W15G21    29.97F HX  94
RICHMOND       MOSUNNY   90  72  55 SW14      29.94F HX  97
RALEIGH        MOSUNNY   94  71  47 S10       29.99F HX 101

$$

ANZ530>537-222100-
MARINE OBSERVATIONS

STATION/POSITION TIME  TEMP    WIND        PRES
                       AIR SEA DIR/SP/G
                 (UTC) (F)     (DEG/KT/KT) (MB)
THOMAS PT LIGHT  2000   85 83  180/ 15/ 16   N/A
BALT KEY BRIDGE  1948   89     190/ 13/ 17 1011.3F
COVE POINT       1948   88     190/ 15/ 18 1013.9F
LEWISETTA        1948   89 84  210/ 13/ 16 1013.5F
SOLOMONS ISLAND  1948   88 83  200/ 10/ 17   N/A
PINEY POINT      1942          210/ 13/ 15   N/A

$$





USA.gov is the U.S. government's official web portal to all federal, state and local government web resources and services.